�v������,,���ԉ��x,�����t���O,���Ԏ��x,�����t���O,��Q���i�QF�j���x,�����t���O,��K�Q��,�����t���O,����,�����t���O,,
2003/5/1,0:00:00,22.8,0 ,51.9,0 ,21.9,0 ,21.8,0 ,10.9,0 ,,
2003/5/1,0:10:00,22.7,0 ,51.8,0 ,21.8,0 ,21.8,0 ,11,0 ,,
2003/5/1,0:20:00,22.6,0 ,51.8,0 ,21.8,0 ,21.7,0 ,11.1,0 ,,
2003/5/1,0:30:00,22.5,0 ,51.8,0 ,21.8,0 ,21.7,0 ,11.2,0 ,,
2003/5/1,0:40:00,22.4,0 ,51.8,0 ,21.7,0 ,21.7,0 ,11.2,0 ,,
2003/5/1,0:50:00,22.3,0 ,51.8,0 ,21.7,0 ,21.7,0 ,11.3,0 ,,
2003/5/1,1:00:00,22.2,0 ,51.7,0 ,21.7,0 ,21.6,0 ,11.4,0 ,,
2003/5/1,1:10:00,22.2,0 ,51.7,0 ,21.6,0 ,21.6,0 ,11.4,0 ,,
2003/5/1,1:20:00,22.1,0 ,51.7,0 ,21.6,0 ,21.5,0 ,11.5,0 ,,
2003/5/1,1:30:00,22,0 ,51.7,0 ,21.5,0 ,21.5,0 ,11.6,0 ,,
2003/5/1,1:40:00,21.9,0 ,51.7,0 ,21.4,0 ,21.4,0 ,11.6,0 ,,
2003/5/1,1:50:00,21.8,0 ,51.6,0 ,21.4,0 ,21.4,0 ,11.7,0 ,,
2003/5/1,2:00:00,21.8,0 ,51.6,0 ,21.3,0 ,21.4,0 ,11.8,0 ,,
2003/5/1,2:10:00,21.7,0 ,51.5,0 ,21.3,0 ,21.3,0 ,11.8,0 ,,
2003/5/1,2:20:00,21.6,0 ,51.5,0 ,21.2,0 ,21.3,0 ,11.9,0 ,,
2003/5/1,2:30:00,21.6,0 ,51.5,0 ,21.1,0 ,21.2,0 ,11.9,0 
2003/5/1,2:40:00,21.5,0 ,51.4,0 ,21,0 ,21.2,0 ,12,0 
2003/5/1,2:50:00,21.4,0 ,51.3,0 ,20.9,0 ,21.1,0 ,12.1,0 
2003/5/1,3:00:00,21.3,0 ,51.3,0 ,20.8,0 ,21.1,0 ,12.1,0 
2003/5/1,3:10:00,21.3,0 ,51.3,0 ,20.7,0 ,21,0 ,12.2,0 
2003/5/1,3:20:00,21.2,0 ,51.3,0 ,20.6,0 ,20.9,0 ,12.2,0 
2003/5/1,3:30:00,21.1,0 ,51.3,0 ,20.5,0 ,20.9,0 ,12.3,0 
2003/5/1,3:40:00,21.1,0 ,51.2,0 ,20.4,0 ,20.8,0 ,12.3,0 
2003/5/1,3:50:00,21,0 ,51.2,0 ,20.3,0 ,20.8,0 ,12.4,0 
2003/5/1,4:00:00,20.9,0 ,51.1,0 ,20.2,0 ,20.7,0 ,12.5,0 
2003/5/1,4:10:00,20.8,0 ,51,0 ,20.1,0 ,20.7,0 ,12.5,0 
2003/5/1,4:20:00,20.8,0 ,51,0 ,20,0 ,20.6,0 ,12.6,0 
2003/5/1,4:30:00,20.7,0 ,51,0 ,19.9,0 ,20.5,0 ,12.6,0 
2003/5/1,4:40:00,20.6,0 ,50.9,0 ,19.8,0 ,20.5,0 ,12.7,0 
2003/5/1,4:50:00,20.6,0 ,50.9,0 ,19.8,0 ,20.4,0 ,12.7,0 
2003/5/1,5:00:00,20.5,0 ,50.9,0 ,19.7,0 ,20.4,0 ,12.8,0 
2003/5/1,5:10:00,20.5,0 ,50.9,0 ,19.6,0 ,20.3,0 ,13.8,0 
2003/5/1,5:20:00,20.5,0 ,51.1,0 ,19.7,0 ,20.3,0 ,13.9,0 
2003/5/1,5:30:00,20.6,0 ,51.6,0 ,20,0 ,20.3,0 ,13.9,0 
2003/5/1,5:40:00,20.8,0 ,51.5,0 ,20.3,0 ,20.3,0 ,13.9,0 
2003/5/1,5:50:00,21.1,0 ,51.2,0 ,20.4,0 ,20.3,0 ,13.9,0 
2003/5/1,6:00:00,21.2,0 ,51.1,0 ,20.5,0 ,20.4,0 ,14,0 
2003/5/1,6:10:00,21.4,0 ,51.2,0 ,20.6,0 ,20.4,0 ,14,0 
2003/5/1,6:20:00,21.6,0 ,51.4,0 ,20.7,0 ,20.4,0 ,14,0 
2003/5/1,6:30:00,21.7,0 ,51.3,0 ,20.8,0 ,20.5,0 ,14.1,0 
2003/5/1,6:40:00,21.9,0 ,51.2,0 ,20.9,0 ,20.5,0 ,12.9,0 
2003/5/1,6:50:00,22,0 ,51.2,0 ,21,0 ,20.5,0 ,12.9,0 
2003/5/1,7:00:00,22.1,0 ,51.2,0 ,21.1,0 ,20.5,0 ,13,0 
2003/5/1,7:10:00,22.2,0 ,50.8,0 ,21.1,0 ,20.5,0 ,11.9,0 
2003/5/1,7:20:00,22.2,0 ,50.4,0 ,21.1,0 ,20.5,0 ,11.9,0 
2003/5/1,7:30:00,22.4,0 ,50.4,0 ,21.1,0 ,20.6,0 ,11.9,0 
2003/5/1,7:40:00,22.5,0 ,50.1,0 ,21.1,0 ,20.6,0 ,12,0 
2003/5/1,7:50:00,22.6,0 ,49.6,0 ,21.1,0 ,20.6,0 ,12,0 
2003/5/1,8:00:00,22.6,0 ,49.2,0 ,21.2,0 ,20.7,0 ,12.1,0 
2003/5/1,8:10:00,22.7,0 ,49.2,0 ,21.2,0 ,20.8,0 ,12.2,0 
2003/5/1,8:20:00,22.7,0 ,49.5,0 ,21.2,0 ,20.9,0 ,12.2,0 
2003/5/1,8:30:00,22.7,0 ,49.6,0 ,21.2,0 ,20.9,0 ,12.3,0 
2003/5/1,8:40:00,22.8,0 ,49.8,0 ,21.2,0 ,21,0 ,12.3,0 
2003/5/1,8:50:00,22.8,0 ,49.9,0 ,21.2,0 ,21,0 ,12.4,0 
2003/5/1,9:00:00,22.7,0 ,49.9,0 ,21.2,0 ,21.1,0 ,12.5,0 
2003/5/1,9:10:00,22.7,0 ,49.8,0 ,21.2,0 ,21.1,0 ,12.6,0 
2003/5/1,9:20:00,22.7,0 ,49.9,0 ,21.2,0 ,21.2,0 ,12.6,0 
2003/5/1,9:30:00,22.8,0 ,49.9,0 ,21.2,0 ,21.2,0 ,12.6,0 
2003/5/1,9:40:00,22.8,0 ,50,0 ,21.3,0 ,21.2,0 ,12.7,0 
2003/5/1,9:50:00,22.8,0 ,50,0 ,21.3,0 ,21.3,0 ,12.7,0 
2003/5/1,10:00:00,22.8,0 ,50.1,0 ,21.3,0 ,21.3,0 ,12.8,0 
2003/5/1,10:10:00,22.9,0 ,50.1,0 ,21.4,0 ,21.4,0 ,11,0 
2003/5/1,10:20:00,22.9,0 ,50.2,0 ,21.5,0 ,21.4,0 ,11,0 
2003/5/1,10:30:00,23,0 ,50.4,0 ,21.5,0 ,21.5,0 ,11.1,0 
2003/5/1,10:40:00,23.1,0 ,50.4,0 ,21.6,0 ,21.5,0 ,11.1,0 
2003/5/1,10:50:00,23.1,0 ,50.5,0 ,21.7,0 ,21.6,0 ,11.2,0 
2003/5/1,11:00:00,23.1,0 ,50.5,0 ,21.7,0 ,21.7,0 ,11.3,0 
2003/5/1,11:10:00,23.2,0 ,50.5,0 ,21.8,0 ,21.7,0 ,11.4,0 
2003/5/1,11:20:00,23.2,0 ,50.4,0 ,21.9,0 ,21.8,0 ,12.2,0 
2003/5/1,11:30:00,23.3,0 ,50.4,0 ,22,0 ,21.8,0 ,12.2,0 
2003/5/1,11:40:00,23.4,0 ,50.3,0 ,22.1,0 ,21.9,0 ,12.2,0 
2003/5/1,11:50:00,23.5,0 ,50.5,0 ,22.2,0 ,22,0 ,12.3,0 
2003/5/1,12:00:00,23.6,0 ,50.5,0 ,22.4,0 ,22.1,0 ,12.4,0 
2003/5/1,12:10:00,23.6,0 ,50.5,0 ,22.5,0 ,22.1,0 ,12,0 
2003/5/1,12:20:00,23.7,0 ,50.5,0 ,22.6,0 ,22.2,0 ,12,0 
2003/5/1,12:30:00,23.7,0 ,50.4,0 ,22.8,0 ,22.2,0 ,12.1,0 
2003/5/1,12:40:00,23.8,0 ,50.4,0 ,22.9,0 ,22.3,0 ,12.1,0 
2003/5/1,12:50:00,23.8,0 ,50.3,0 ,23.1,0 ,22.3,0 ,12.2,0 
2003/5/1,13:00:00,23.9,0 ,50.2,0 ,23.3,0 ,22.4,0 ,12.2,0 
2003/5/1,13:10:00,24,0 ,50.1,0 ,23.4,0 ,22.4,0 ,12.3,0 
2003/5/1,13:20:00,24.1,0 ,50,0 ,23.6,0 ,22.5,0 ,12.4,0 
2003/5/1,13:30:00,24.1,0 ,50,0 ,23.8,0 ,22.6,0 ,12.4,0 
2003/5/1,13:40:00,24.2,0 ,50,0 ,24,0 ,22.6,0 ,12.5,0 
2003/5/1,13:50:00,24.2,0 ,49.9,0 ,24.2,0 ,22.7,0 ,12.6,0 
2003/5/1,14:00:00,24.3,0 ,49.8,0 ,24.4,0 ,22.7,0 ,12.6,0 
2003/5/1,14:10:00,24.3,0 ,49.6,0 ,24.5,0 ,22.8,0 ,12.7,0 
2003/5/1,14:20:00,24.4,0 ,49.6,0 ,24.7,0 ,22.9,0 ,12.8,0 
2003/5/1,14:30:00,24.4,0 ,49.6,0 ,24.8,0 ,22.9,0 ,12.8,0 
2003/5/1,14:40:00,24.5,0 ,49.6,0 ,25,0 ,23,0 ,12.9,0 
2003/5/1,14:50:00,24.5,0 ,49.6,0 ,25.2,0 ,23,0 ,13,0 
2003/5/1,15:00:00,24.5,0 ,49.6,0 ,25.4,0 ,23.1,0 ,13,0 
2003/5/1,15:10:00,24.5,0 ,49.6,0 ,25.6,0 ,23.2,0 ,13.1,0 
2003/5/1,15:20:00,24.5,0 ,49.7,0 ,25.7,0 ,23.2,0 ,13.2,0 
2003/5/1,15:30:00,24.6,0 ,49.9,0 ,25.9,0 ,23.2,0 ,13.2,0 
2003/5/1,15:40:00,24.6,0 ,49.9,0 ,26,0 ,23.3,0 ,13.3,0 
2003/5/1,15:50:00,24.7,0 ,50,0 ,26.1,0 ,23.4,0 ,13.4,0 
2003/5/1,16:00:00,24.7,0 ,50,0 ,26.2,0 ,23.4,0 ,13.4,0 
2003/5/1,16:10:00,24.7,0 ,50.1,0 ,26.3,0 ,23.4,0 ,14.1,0 
2003/5/1,16:20:00,24.7,0 ,49.9,0 ,26.3,0 ,23.4,0 ,14.1,0 
2003/5/1,16:30:00,24.7,0 ,49.7,0 ,26.3,0 ,23.4,0 ,14.2,0 
2003/5/1,16:40:00,24.6,0 ,49.6,0 ,26.3,0 ,23.4,0 ,14.2,0 
2003/5/1,16:50:00,24.6,0 ,49.5,0 ,26.3,0 ,23.4,0 ,14.3,0 
2003/5/1,17:00:00,24.5,0 ,49.4,0 ,26.3,0 ,23.4,0 ,14.3,0 
2003/5/1,17:10:00,24.5,0 ,49.3,0 ,26.3,0 ,23.4,0 ,14.3,0 
2003/5/1,17:20:00,24.4,0 ,49.1,0 ,26.2,0 ,23.4,0 ,14.4,0 
2003/5/1,17:30:00,24.3,0 ,49.1,0 ,26.1,0 ,23.4,0 ,14.4,0 
2003/5/1,17:40:00,24.2,0 ,49.1,0 ,26.1,0 ,23.4,0 ,14.5,0 
2003/5/1,17:50:00,24.2,0 ,49,0 ,26,0 ,23.4,0 ,14.5,0 
2003/5/1,18:00:00,24.1,0 ,48.9,0 ,25.8,0 ,23.3,0 ,14.6,0 
2003/5/1,18:10:00,24,0 ,48.9,0 ,25.7,0 ,23.3,0 ,14.6,0 
2003/5/1,18:20:00,24,0 ,48.9,0 ,25.5,0 ,23.3,0 ,14.7,0 
2003/5/1,18:30:00,23.9,0 ,48.6,0 ,25.4,0 ,23.2,0 ,14.7,0 
2003/5/1,18:40:00,23.8,0 ,48.4,0 ,25.2,0 ,23.2,0 ,14.8,0 
2003/5/1,18:50:00,23.7,0 ,47.9,0 ,25,0 ,23.1,0 ,14.8,0 
2003/5/1,19:00:00,23.6,0 ,47.4,0 ,24.8,0 ,23.1,0 ,14.9,0 
2003/5/1,19:10:00,23.5,0 ,46.8,0 ,24.7,0 ,23,0 ,14.9,0 
2003/5/1,19:20:00,23.4,0 ,46.8,0 ,24.5,0 ,23,0 ,15,0 
2003/5/1,19:30:00,23.4,0 ,46.7,0 ,24.4,0 ,22.9,0 ,15,0 
2003/5/1,19:40:00,23.4,0 ,46.7,0 ,24.3,0 ,22.9,0 ,13.6,0 
2003/5/1,19:50:00,23.5,0 ,47.1,0 ,24.2,0 ,22.9,0 ,13.7,0 
2003/5/1,20:00:00,23.5,0 ,47,0 ,24.1,0 ,22.9,0 ,13.7,0 
2003/5/1,20:10:00,23.5,0 ,47.1,0 ,24.1,0 ,22.9,0 ,13.8,0 
2003/5/1,20:20:00,23.5,0 ,47.2,0 ,24,0 ,22.9,0 ,13.8,0 
2003/5/1,20:30:00,23.6,0 ,47.7,0 ,23.9,0 ,22.9,0 ,13.9,0 
2003/5/1,20:40:00,23.6,0 ,48,0 ,23.9,0 ,22.8,0 ,13.9,0 
2003/5/1,20:50:00,23.6,0 ,48.2,0 ,23.8,0 ,22.8,0 ,12.4,0 
2003/5/1,21:00:00,23.6,0 ,48.4,0 ,23.7,0 ,22.8,0 ,12.5,0 
2003/5/1,21:10:00,23.7,0 ,48.5,0 ,23.7,0 ,22.8,0 ,12.5,0 
2003/5/1,21:20:00,23.6,0 ,48.7,0 ,23.6,0 ,22.8,0 ,12.6,0 
2003/5/1,21:30:00,23.6,0 ,48.9,0 ,23.5,0 ,22.8,0 ,12.6,0 
2003/5/1,21:40:00,23.6,0 ,49,0 ,23.5,0 ,22.8,0 ,12.1,0 
2003/5/1,21:50:00,23.6,0 ,49.1,0 ,23.4,0 ,22.8,0 ,12.1,0 
2003/5/1,22:00:00,23.6,0 ,49.3,0 ,23.4,0 ,22.8,0 ,12.1,0 
2003/5/1,22:10:00,23.6,0 ,49.6,0 ,23.3,0 ,22.8,0 ,12.2,0 
2003/5/1,22:20:00,23.6,0 ,49.7,0 ,23.2,0 ,22.7,0 ,12.3,0 
2003/5/1,22:30:00,23.5,0 ,50,0 ,23.2,0 ,22.7,0 ,12.4,0 
2003/5/1,22:40:00,23.5,0 ,50.5,0 ,23.2,0 ,22.7,0 ,12.4,0 
2003/5/1,22:50:00,23.4,0 ,50.6,0 ,23.2,0 ,22.7,0 ,12.5,0 
2003/5/1,23:00:00,23.4,0 ,50.8,0 ,23.2,0 ,22.7,0 ,12.5,0 
2003/5/1,23:10:00,23.3,0 ,50.9,0 ,23.2,0 ,22.6,0 ,12.6,0 
2003/5/1,23:20:00,23.2,0 ,51,0 ,23.2,0 ,22.6,0 ,12.6,0 
2003/5/1,23:30:00,23.2,0 ,51.1,0 ,23.2,0 ,22.6,0 ,12.7,0 
2003/5/1,23:40:00,23.1,0 ,51.1,0 ,23.2,0 ,22.6,0 ,12.7,0 
2003/5/1,23:50:00,23.1,0 ,51.3,0 ,23.1,0 ,22.5,0 ,12.8,0 
2003/5/2,0:00:00,23,0 ,51.4,0 ,23.1,0 ,22.5,0 ,12.9,0 
2003/5/2,0:10:00,23,0 ,51.5,0 ,23,0 ,22.5,0 ,12.9,0 
2003/5/2,0:20:00,22.9,0 ,51.5,0 ,23,0 ,22.4,0 ,13,0 
2003/5/2,0:30:00,22.9,0 ,51.6,0 ,22.9,0 ,22.4,0 ,13,0 
2003/5/2,0:40:00,22.8,0 ,51.6,0 ,22.8,0 ,22.4,0 ,13.1,0 
2003/5/2,0:50:00,22.8,0 ,51.7,0 ,22.8,0 ,22.3,0 ,13.2,0 
2003/5/2,1:00:00,22.7,0 ,51.7,0 ,22.7,0 ,22.3,0 ,13.2,0 
2003/5/2,1:10:00,22.6,0 ,51.8,0 ,22.6,0 ,22.3,0 ,13.3,0 
2003/5/2,1:20:00,22.6,0 ,51.9,0 ,22.6,0 ,22.2,0 ,13.3,0 
2003/5/2,1:30:00,22.5,0 ,51.9,0 ,22.5,0 ,22.2,0 ,13.4,0 
2003/5/2,1:40:00,22.5,0 ,52,0 ,22.5,0 ,22.1,0 ,13.4,0 
2003/5/2,1:50:00,22.5,0 ,52,0 ,22.4,0 ,22.1,0 ,13.5,0 
2003/5/2,2:00:00,22.4,0 ,52.1,0 ,22.4,0 ,22.1,0 ,13.5,0 
2003/5/2,2:10:00,22.3,0 ,52,0 ,22.3,0 ,22,0 ,13.6,0 
2003/5/2,2:20:00,22.3,0 ,52.1,0 ,22.2,0 ,22,0 ,13.6,0 
2003/5/2,2:30:00,22.2,0 ,52.2,0 ,22.2,0 ,21.9,0 ,13.7,0 
2003/5/2,2:40:00,22.2,0 ,52.3,0 ,22.1,0 ,21.9,0 ,13.8,0 
2003/5/2,2:50:00,22.2,0 ,52.3,0 ,22.1,0 ,21.9,0 ,13.8,0 
2003/5/2,3:00:00,22.1,0 ,52.3,0 ,22,0 ,21.8,0 ,13.8,0 
2003/5/2,3:10:00,22.1,0 ,52.3,0 ,22,0 ,21.8,0 ,13.9,0 
2003/5/2,3:20:00,22,0 ,52.4,0 ,21.9,0 ,21.7,0 ,14,0 
2003/5/2,3:30:00,22,0 ,52.4,0 ,21.9,0 ,21.7,0 ,14,0 
2003/5/2,3:40:00,21.9,0 ,52.5,0 ,21.8,0 ,21.6,0 ,14,0 
2003/5/2,3:50:00,21.9,0 ,52.6,0 ,21.8,0 ,21.6,0 ,14.1,0 
2003/5/2,4:00:00,21.8,0 ,52.6,0 ,21.7,0 ,21.5,0 ,14.1,0 
2003/5/2,4:10:00,21.8,0 ,52.7,0 ,21.7,0 ,21.5,0 ,14.2,0 
2003/5/2,4:20:00,21.7,0 ,52.7,0 ,21.6,0 ,21.5,0 ,14.2,0 
2003/5/2,4:30:00,21.7,0 ,52.7,0 ,21.6,0 ,21.4,0 ,14.3,0 
2003/5/2,4:40:00,21.6,0 ,52.7,0 ,21.5,0 ,21.4,0 ,14.3,0 
2003/5/2,4:50:00,21.6,0 ,52.7,0 ,21.5,0 ,21.3,0 ,14.4,0 
2003/5/2,5:00:00,21.6,0 ,52.8,0 ,21.4,0 ,21.3,0 ,14.4,0 
2003/5/2,5:10:00,21.5,0 ,52.8,0 ,21.4,0 ,21.3,0 ,14.4,0 
2003/5/2,5:20:00,21.5,0 ,52.8,0 ,21.3,0 ,21.2,0 ,14.5,0 
2003/5/2,5:30:00,21.4,0 ,52.8,0 ,21.3,0 ,21.2,0 ,14.5,0 
2003/5/2,5:40:00,21.4,0 ,52.8,0 ,21.2,0 ,21.1,0 ,14.6,0 
2003/5/2,5:50:00,21.4,0 ,52.9,0 ,21.2,0 ,21.1,0 ,14.6,0 
2003/5/2,6:00:00,21.3,0 ,52.9,0 ,21.1,0 ,21,0 ,14.6,0 
2003/5/2,6:10:00,21.3,0 ,52.8,0 ,21.1,0 ,21,0 ,14.7,0 
2003/5/2,6:20:00,21.3,0 ,52.9,0 ,21.1,0 ,21,0 ,14.7,0 
2003/5/2,6:30:00,21.2,0 ,53,0 ,21.1,0 ,20.9,0 ,14.1,0 
2003/5/2,6:40:00,21.3,0 ,53.5,0 ,21,0 ,20.9,0 ,10.7,0 
2003/5/2,6:50:00,21.5,0 ,53.8,0 ,21.1,0 ,20.9,0 ,10.7,0 
2003/5/2,7:00:00,21.8,0 ,53.5,0 ,21.2,0 ,20.8,0 ,10.8,0 
2003/5/2,7:10:00,22,0 ,52.3,0 ,21.3,0 ,20.8,0 ,10.9,0 
2003/5/2,7:20:00,22.1,0 ,51.3,0 ,21.4,0 ,20.8,0 ,10.9,0 
2003/5/2,7:30:00,22.3,0 ,50.2,0 ,21.5,0 ,20.8,0 ,11,0 
2003/5/2,7:40:00,22.4,0 ,49.7,0 ,21.5,0 ,20.8,0 ,11.1,0 
2003/5/2,7:50:00,22.6,0 ,48.6,0 ,21.6,0 ,20.9,0 ,11.2,0 
2003/5/2,8:00:00,22.7,0 ,47.7,0 ,21.7,0 ,20.9,0 ,11.4,0 
2003/5/2,8:10:00,22.8,0 ,47.3,0 ,21.8,0 ,21,0 ,11.4,0 
2003/5/2,8:20:00,22.8,0 ,47.1,0 ,21.7,0 ,21,0 ,11.5,0 
2003/5/2,8:30:00,22.8,0 ,46.9,0 ,21.7,0 ,21,0 ,11.6,0 
2003/5/2,8:40:00,22.7,0 ,46.6,0 ,21.6,0 ,21.1,0 ,11.6,0 
2003/5/2,8:50:00,22.7,0 ,46.8,0 ,21.6,0 ,21.1,0 ,11.7,0 
2003/5/2,9:00:00,22.6,0 ,46.9,0 ,21.5,0 ,21.1,0 ,11.8,0 
2003/5/2,9:10:00,22.6,0 ,46.9,0 ,21.5,0 ,21.1,0 ,11.7,0 
2003/5/2,9:20:00,22.6,0 ,47,0 ,21.5,0 ,21.2,0 ,11.8,0 
2003/5/2,9:30:00,22.6,0 ,47.3,0 ,21.5,0 ,21.2,0 ,11.8,0 
2003/5/2,9:40:00,22.6,0 ,47.4,0 ,21.5,0 ,21.2,0 ,11.9,0 
2003/5/2,9:50:00,22.6,0 ,47.5,0 ,21.5,0 ,21.2,0 ,12,0 
2003/5/2,10:00:00,22.6,0 ,47.7,0 ,21.5,0 ,21.3,0 ,12,0 
2003/5/2,10:10:00,22.6,0 ,47.8,0 ,21.5,0 ,21.3,0 ,12.1,0 
2003/5/2,10:20:00,22.6,0 ,47.9,0 ,21.5,0 ,21.3,0 ,12.2,0 
2003/5/2,10:30:00,22.6,0 ,48.1,0 ,21.6,0 ,21.3,0 ,12.2,0 
2003/5/2,10:40:00,22.6,0 ,48.2,0 ,21.6,0 ,21.3,0 ,12.3,0 
2003/5/2,10:50:00,22.6,0 ,48.4,0 ,21.7,0 ,21.3,0 ,12.4,0 
2003/5/2,11:00:00,22.6,0 ,48.5,0 ,21.7,0 ,21.4,0 ,12.4,0 
2003/5/2,11:10:00,22.6,0 ,48.6,0 ,21.8,0 ,21.4,0 ,12.5,0 
2003/5/2,11:20:00,22.6,0 ,48.8,0 ,21.8,0 ,21.4,0 ,12.6,0 
2003/5/2,11:30:00,22.6,0 ,48.8,0 ,21.9,0 ,21.4,0 ,12.7,0 
2003/5/2,11:40:00,22.7,0 ,48.9,0 ,22,0 ,21.5,0 ,12.7,0 
2003/5/2,11:50:00,22.7,0 ,49,0 ,22.1,0 ,21.5,0 ,12.8,0 
2003/5/2,12:00:00,22.7,0 ,49.1,0 ,22.2,0 ,21.5,0 ,12.9,0 
2003/5/2,12:10:00,22.8,0 ,49.2,0 ,22.4,0 ,21.6,0 ,12.9,0 
2003/5/2,12:20:00,22.9,0 ,49.3,0 ,22.5,0 ,21.6,0 ,13,0 
2003/5/2,12:30:00,22.9,0 ,49.4,0 ,22.7,0 ,21.7,0 ,13.1,0 
2003/5/2,12:40:00,23,0 ,49.4,0 ,22.9,0 ,21.7,0 ,13.1,0 
2003/5/2,12:50:00,23.1,0 ,49.5,0 ,23.1,0 ,21.8,0 ,13.2,0 
2003/5/2,13:00:00,23.2,0 ,49.5,0 ,23.3,0 ,21.8,0 ,13.3,0 
2003/5/2,13:10:00,23.3,0 ,49.6,0 ,23.5,0 ,21.9,0 ,13.3,0 
2003/5/2,13:20:00,23.4,0 ,49.6,0 ,23.7,0 ,22,0 ,13.4,0 
2003/5/2,13:30:00,23.5,0 ,49.6,0 ,23.9,0 ,22,0 ,13.5,0 
2003/5/2,13:40:00,23.6,0 ,49.7,0 ,24.2,0 ,22.1,0 ,13.5,0 
2003/5/2,13:50:00,23.7,0 ,49.7,0 ,24.4,0 ,22.2,0 ,13.6,0 
2003/5/2,14:00:00,23.8,0 ,49.7,0 ,24.6,0 ,22.3,0 ,13.7,0 
2003/5/2,14:10:00,23.9,0 ,49.8,0 ,24.7,0 ,22.3,0 ,13.7,0 
2003/5/2,14:20:00,24,0 ,49.8,0 ,24.9,0 ,22.4,0 ,13.8,0 
2003/5/2,14:30:00,24,0 ,49.9,0 ,25,0 ,22.5,0 ,13.8,0 
2003/5/2,14:40:00,23.9,0 ,50,0 ,25.1,0 ,22.5,0 ,13.9,0 
2003/5/2,14:50:00,24,0 ,50.1,0 ,25.2,0 ,22.6,0 ,14,0 
2003/5/2,15:00:00,24,0 ,50.1,0 ,25.3,0 ,22.6,0 ,14,0 
2003/5/2,15:10:00,23.9,0 ,50.2,0 ,25.3,0 ,22.7,0 ,14.1,0 
2003/5/2,15:20:00,24,0 ,50.3,0 ,25.4,0 ,22.7,0 ,14.1,0 
2003/5/2,15:30:00,24,0 ,50.3,0 ,25.5,0 ,22.8,0 ,14.2,0 
2003/5/2,15:40:00,24.1,0 ,50.4,0 ,25.7,0 ,22.8,0 ,14.3,0 
2003/5/2,15:50:00,24.1,0 ,50.4,0 ,25.9,0 ,22.9,0 ,14.3,0 
2003/5/2,16:00:00,24.1,0 ,50.5,0 ,26,0 ,22.9,0 ,14.4,0 
2003/5/2,16:10:00,24.2,0 ,50.5,0 ,26.2,0 ,22.9,0 ,14.4,0 
2003/5/2,16:20:00,24.2,0 ,50.5,0 ,26.3,0 ,22.9,0 ,14.5,0 
2003/5/2,16:30:00,24.2,0 ,50.5,0 ,26.4,0 ,23,0 ,14.6,0 
2003/5/2,16:40:00,24.2,0 ,50.6,0 ,26.4,0 ,23,0 ,14.6,0 
2003/5/2,16:50:00,24.2,0 ,50.6,0 ,26.5,0 ,23,0 ,14.7,0 
2003/5/2,17:00:00,24.1,0 ,50.7,0 ,26.5,0 ,23,0 ,14.7,0 
2003/5/2,17:10:00,24.1,0 ,50.8,0 ,26.5,0 ,23,0 ,14.8,0 
2003/5/2,17:20:00,24.1,0 ,50.8,0 ,26.5,0 ,23,0 ,14.8,0 
2003/5/2,17:30:00,24,0 ,50.8,0 ,26.4,0 ,23,0 ,14.8,0 
2003/5/2,17:40:00,24,0 ,50.8,0 ,26.4,0 ,23,0 ,14.8,0 
2003/5/2,17:50:00,24,0 ,51.1,0 ,26.3,0 ,23,0 ,14.8,0 
2003/5/2,18:00:00,23.9,0 ,51.1,0 ,26.2,0 ,23,0 ,13,0 
2003/5/2,18:10:00,23.9,0 ,51.3,0 ,26.2,0 ,22.9,0 ,13.1,0 
2003/5/2,18:20:00,23.9,0 ,51.5,0 ,26.1,0 ,22.9,0 ,13.1,0 
2003/5/2,18:30:00,23.8,0 ,51.6,0 ,26,0 ,22.9,0 ,13.2,0 
2003/5/2,18:40:00,23.8,0 ,51.6,0 ,25.9,0 ,22.9,0 ,13.3,0 
2003/5/2,18:50:00,23.8,0 ,51.5,0 ,25.8,0 ,22.9,0 ,13.3,0 
2003/5/2,19:00:00,23.7,0 ,51.2,0 ,25.7,0 ,22.9,0 ,13.4,0 
2003/5/2,19:10:00,23.8,0 ,51.6,0 ,25.6,0 ,22.9,0 ,13.5,0 
2003/5/2,19:20:00,23.8,0 ,51.7,0 ,25.4,0 ,22.9,0 ,13.5,0 
2003/5/2,19:30:00,23.9,0 ,51.9,0 ,25.3,0 ,22.9,0 ,13.6,0 
2003/5/2,19:40:00,23.9,0 ,51.8,0 ,25.2,0 ,22.9,0 ,13.6,0 
2003/5/2,19:50:00,23.9,0 ,51.9,0 ,25.1,0 ,22.9,0 ,13.7,0 
2003/5/2,20:00:00,23.9,0 ,52.1,0 ,25,0 ,22.9,0 ,13.8,0 
2003/5/2,20:10:00,23.9,0 ,52.1,0 ,24.9,0 ,22.9,0 ,13.8,0 
2003/5/2,20:20:00,23.9,0 ,52.2,0 ,24.9,0 ,22.9,0 ,13.9,0 
2003/5/2,20:30:00,23.9,0 ,52.2,0 ,24.8,0 ,22.9,0 ,14,0 
2003/5/2,20:40:00,23.9,0 ,52.3,0 ,24.7,0 ,22.9,0 ,14,0 
2003/5/2,20:50:00,23.9,0 ,52.3,0 ,24.7,0 ,22.9,0 ,14.3,0 
2003/5/2,21:00:00,23.9,0 ,52.2,0 ,24.6,0 ,22.9,0 ,14.2,0 
2003/5/2,21:10:00,23.8,0 ,52.2,0 ,24.6,0 ,22.9,0 ,12.1,0 
2003/5/2,21:20:00,23.8,0 ,52.1,0 ,24.6,0 ,22.8,0 ,12.1,0 
2003/5/2,21:30:00,23.8,0 ,52.5,0 ,24.6,0 ,22.8,0 ,12.2,0 
2003/5/2,21:40:00,23.8,0 ,52.6,0 ,24.6,0 ,22.8,0 ,12.3,0 
2003/5/2,21:50:00,23.7,0 ,52.5,0 ,24.6,0 ,22.8,0 ,12.4,0 
2003/5/2,22:00:00,23.7,0 ,52.5,0 ,24.5,0 ,22.8,0 ,12.4,0 
2003/5/2,22:10:00,23.7,0 ,52.5,0 ,24.5,0 ,22.8,0 ,12.5,0 
2003/5/2,22:20:00,23.6,0 ,52.5,0 ,24.5,0 ,22.8,0 ,12.6,0 
2003/5/2,22:30:00,23.6,0 ,52.4,0 ,24.4,0 ,22.8,0 ,12.6,0 
2003/5/2,22:40:00,23.6,0 ,52.3,0 ,24.3,0 ,22.7,0 ,12.7,0 
2003/5/2,22:50:00,23.5,0 ,52.3,0 ,24.3,0 ,22.7,0 ,12.8,0 
2003/5/2,23:00:00,23.5,0 ,52.2,0 ,24.2,0 ,22.7,0 ,12.8,0 
2003/5/2,23:10:00,23.4,0 ,52.2,0 ,24.2,0 ,22.7,0 ,12.9,0 
2003/5/2,23:20:00,23.4,0 ,52.1,0 ,24.1,0 ,22.7,0 ,13,0 
2003/5/2,23:30:00,23.3,0 ,52.2,0 ,24.1,0 ,22.7,0 ,13,0 
2003/5/2,23:40:00,23.3,0 ,52.1,0 ,24.1,0 ,22.7,0 ,13.1,0 
2003/5/2,23:50:00,23.2,0 ,52.1,0 ,24,0 ,22.6,0 ,13.2,0 
2003/5/3,0:00:00,23.2,0 ,52.1,0 ,23.9,0 ,22.6,0 ,13.2,0 
2003/5/3,0:10:00,23.2,0 ,52.1,0 ,23.9,0 ,22.6,0 ,13.3,0 
2003/5/3,0:20:00,23.1,0 ,52,0 ,23.8,0 ,22.6,0 ,13.4,0 
2003/5/3,0:30:00,23,0 ,51.9,0 ,23.7,0 ,22.5,0 ,13.4,0 
2003/5/3,0:40:00,23,0 ,52,0 ,23.6,0 ,22.5,0 ,13.5,0 
2003/5/3,0:50:00,23,0 ,52.1,0 ,23.5,0 ,22.5,0 ,13.6,0 
2003/5/3,1:00:00,22.9,0 ,52,0 ,23.5,0 ,22.5,0 ,13.6,0 
2003/5/3,1:10:00,22.9,0 ,51.8,0 ,23.4,0 ,22.4,0 ,13.7,0 
2003/5/3,1:20:00,22.8,0 ,51.9,0 ,23.3,0 ,22.4,0 ,13.7,0 
2003/5/3,1:30:00,22.8,0 ,51.9,0 ,23.2,0 ,22.4,0 ,13.8,0 
2003/5/3,1:40:00,22.7,0 ,51.9,0 ,23.2,0 ,22.3,0 ,13.9,0 
2003/5/3,1:50:00,22.7,0 ,51.9,0 ,23.1,0 ,22.3,0 ,13.9,0 
2003/5/3,2:00:00,22.7,0 ,51.9,0 ,23,0 ,22.3,0 ,14,0 
2003/5/3,2:10:00,22.6,0 ,51.9,0 ,23,0 ,22.2,0 ,14,0 
2003/5/3,2:20:00,22.6,0 ,51.9,0 ,22.9,0 ,22.2,0 ,14.1,0 
2003/5/3,2:30:00,22.5,0 ,51.8,0 ,22.8,0 ,22.2,0 ,14.1,0 
2003/5/3,2:40:00,22.5,0 ,51.8,0 ,22.8,0 ,22.1,0 ,14.2,0 
2003/5/3,2:50:00,22.5,0 ,51.8,0 ,22.7,0 ,22.1,0 ,14.2,0 
2003/5/3,3:00:00,22.4,0 ,51.9,0 ,22.6,0 ,22.1,0 ,14.3,0 
2003/5/3,3:10:00,22.4,0 ,51.7,0 ,22.6,0 ,22,0 ,14.3,0 
2003/5/3,3:20:00,22.3,0 ,51.8,0 ,22.5,0 ,22,0 ,14.4,0 
2003/5/3,3:30:00,22.3,0 ,51.8,0 ,22.4,0 ,22,0 ,14.4,0 
2003/5/3,3:40:00,22.2,0 ,51.8,0 ,22.4,0 ,21.9,0 ,14.5,0 
2003/5/3,3:50:00,22.2,0 ,51.7,0 ,22.3,0 ,21.9,0 ,14.5,0 
2003/5/3,4:00:00,22.2,0 ,51.6,0 ,22.2,0 ,21.9,0 ,14.6,0 
2003/5/3,4:10:00,22.1,0 ,51.5,0 ,22.2,0 ,21.8,0 ,14.6,0 
2003/5/3,4:20:00,22.1,0 ,51.5,0 ,22.1,0 ,21.8,0 ,14.7,0 
2003/5/3,4:30:00,22,0 ,51.5,0 ,22.1,0 ,21.7,0 ,14.7,0 
2003/5/3,4:40:00,22,0 ,51.4,0 ,22.1,0 ,21.7,0 ,14.8,0 
2003/5/3,4:50:00,21.9,0 ,51.5,0 ,22.1,0 ,21.7,0 ,14.8,0 
2003/5/3,5:00:00,21.9,0 ,51.5,0 ,22.1,0 ,21.6,0 ,14.9,0 
2003/5/3,5:10:00,21.9,0 ,51.6,0 ,22,0 ,21.6,0 ,14.9,0 
2003/5/3,5:20:00,21.8,0 ,51.6,0 ,22.1,0 ,21.6,0 ,12.9,0 
2003/5/3,5:30:00,21.8,0 ,51.7,0 ,22,0 ,21.5,0 ,12.9,0 
2003/5/3,5:40:00,21.8,0 ,51.4,0 ,22,0 ,21.5,0 ,13,0 
2003/5/3,5:50:00,21.8,0 ,51.7,0 ,21.9,0 ,21.5,0 ,13,0 
2003/5/3,6:00:00,21.8,0 ,51.9,0 ,21.8,0 ,21.4,0 ,11,0 
2003/5/3,6:10:00,21.7,0 ,51.3,0 ,21.7,0 ,21.4,0 ,11,0 
2003/5/3,6:20:00,21.7,0 ,51.2,0 ,21.7,0 ,21.3,0 ,11.1,0 
2003/5/3,6:30:00,21.7,0 ,51.2,0 ,21.6,0 ,21.3,0 ,11.1,0 
2003/5/3,6:40:00,21.7,0 ,51.1,0 ,21.5,0 ,21.3,0 ,11.2,0 
2003/5/3,6:50:00,21.7,0 ,51.1,0 ,21.4,0 ,21.2,0 ,11.3,0 
2003/5/3,7:00:00,21.7,0 ,51.1,0 ,21.3,0 ,21.2,0 ,9.8,0 
2003/5/3,7:10:00,21.7,0 ,51.1,0 ,21.3,0 ,21.2,0 ,9.6,0 
2003/5/3,7:20:00,21.6,0 ,51,0 ,21.2,0 ,21.2,0 ,9.7,0 
2003/5/3,7:30:00,21.6,0 ,51.1,0 ,21.2,0 ,21.1,0 ,9.7,0 
2003/5/3,7:40:00,21.6,0 ,51.2,0 ,21.1,0 ,21.1,0 ,9.8,0 
2003/5/3,7:50:00,21.7,0 ,51.2,0 ,21.1,0 ,21.1,0 ,9.9,0 
2003/5/3,8:00:00,21.6,0 ,51,0 ,21.1,0 ,21.1,0 ,9.9,0 
2003/5/3,8:10:00,21.7,0 ,51.1,0 ,21.1,0 ,21.1,0 ,10.1,0 
2003/5/3,8:20:00,21.7,0 ,51.2,0 ,21.1,0 ,21.1,0 ,10.2,0 
2003/5/3,8:30:00,21.7,0 ,51.2,0 ,21.1,0 ,21.1,0 ,10.3,0 
2003/5/3,8:40:00,21.7,0 ,51.2,0 ,21.1,0 ,21,0 ,10.3,0 
2003/5/3,8:50:00,21.7,0 ,51.2,0 ,21.1,0 ,21,0 ,10.4,0 
2003/5/3,9:00:00,21.7,0 ,51.2,0 ,21.1,0 ,21,0 ,10.5,0 
2003/5/3,9:10:00,21.7,0 ,51.2,0 ,21.1,0 ,21,0 ,10.5,0 
2003/5/3,9:20:00,21.8,0 ,51.3,0 ,21.2,0 ,21,0 ,10.6,0 
2003/5/3,9:30:00,21.8,0 ,51.4,0 ,21.2,0 ,21,0 ,10.7,0 
2003/5/3,9:40:00,21.8,0 ,51.6,0 ,21.2,0 ,21,0 ,10.8,0 
2003/5/3,9:50:00,21.9,0 ,51.8,0 ,21.3,0 ,21,0 ,11.2,0 
2003/5/3,10:00:00,22,0 ,52,0 ,21.4,0 ,21.1,0 ,11.2,0 
2003/5/3,10:10:00,22,0 ,52.2,0 ,21.4,0 ,21.1,0 ,11.3,0 
2003/5/3,10:20:00,22,0 ,52.3,0 ,21.5,0 ,21.1,0 ,11.3,0 
2003/5/3,10:30:00,22.1,0 ,52.4,0 ,21.6,0 ,21.1,0 ,11.4,0 
2003/5/3,10:40:00,22.1,0 ,52.4,0 ,21.7,0 ,21.1,0 ,11.5,0 
2003/5/3,10:50:00,22.2,0 ,52.5,0 ,21.8,0 ,21.2,0 ,11.6,0 
2003/5/3,11:00:00,22.2,0 ,52.5,0 ,21.9,0 ,21.2,0 ,11.6,0 
2003/5/3,11:10:00,22.2,0 ,52.7,0 ,22,0 ,21.2,0 ,11.7,0 
2003/5/3,11:20:00,22.3,0 ,52.7,0 ,22.2,0 ,21.2,0 ,11.8,0 
2003/5/3,11:30:00,22.3,0 ,52.7,0 ,22.4,0 ,21.3,0 ,11.9,0 
2003/5/3,11:40:00,22.4,0 ,52.8,0 ,22.6,0 ,21.3,0 ,11.9,0 
2003/5/3,11:50:00,22.5,0 ,52.8,0 ,22.8,0 ,21.4,0 ,12,0 
2003/5/3,12:00:00,22.5,0 ,52.8,0 ,23,0 ,21.5,0 ,12.1,0 
2003/5/3,12:10:00,22.7,0 ,52.9,0 ,23.2,0 ,21.5,0 ,12.2,0 
2003/5/3,12:20:00,22.8,0 ,52.9,0 ,23.4,0 ,21.6,0 ,12.3,0 
2003/5/3,12:30:00,22.9,0 ,53,0 ,23.6,0 ,21.6,0 ,12.3,0 
2003/5/3,12:40:00,23,0 ,53,0 ,23.8,0 ,21.7,0 ,12.4,0 
2003/5/3,12:50:00,23.1,0 ,53,0 ,23.9,0 ,21.7,0 ,13.2,0 
2003/5/3,13:00:00,23.3,0 ,52.8,0 ,24.1,0 ,21.8,0 ,13.2,0 
2003/5/3,13:10:00,23.4,0 ,52.7,0 ,24.3,0 ,21.9,0 ,13.3,0 
2003/5/3,13:20:00,23.5,0 ,52.7,0 ,24.6,0 ,22,0 ,13.3,0 
2003/5/3,13:30:00,23.7,0 ,52.6,0 ,24.8,0 ,22.1,0 ,13.4,0 
2003/5/3,13:40:00,23.8,0 ,52.6,0 ,25,0 ,22.2,0 ,13.4,0 
2003/5/3,13:50:00,23.9,0 ,52.5,0 ,25.2,0 ,22.3,0 ,13.5,0 
2003/5/3,14:00:00,24,0 ,52.4,0 ,25.5,0 ,22.4,0 ,13.6,0 
2003/5/3,14:10:00,24.1,0 ,52.3,0 ,25.8,0 ,22.5,0 ,13.6,0 
2003/5/3,14:20:00,24.2,0 ,52.2,0 ,26,0 ,22.6,0 ,13.7,0 
2003/5/3,14:30:00,24.3,0 ,52.2,0 ,26.2,0 ,22.7,0 ,13.7,0 
2003/5/3,14:40:00,24.4,0 ,52.1,0 ,26.5,0 ,22.8,0 ,13.8,0 
2003/5/3,14:50:00,24.4,0 ,52.1,0 ,26.7,0 ,22.9,0 ,13.9,0 
2003/5/3,15:00:00,24.5,0 ,52,0 ,26.9,0 ,22.9,0 ,13.9,0 
2003/5/3,15:10:00,24.5,0 ,52,0 ,27.1,0 ,23,0 ,14,0 
2003/5/3,15:20:00,24.6,0 ,52.1,0 ,27.2,0 ,23.1,0 ,14,0 
2003/5/3,15:30:00,24.6,0 ,52,0 ,27.4,0 ,23.2,0 ,14.1,0 
2003/5/3,15:40:00,24.6,0 ,52,0 ,27.5,0 ,23.2,0 ,14.1,0 
2003/5/3,15:50:00,24.7,0 ,51.9,0 ,27.6,0 ,23.3,0 ,14.2,0 
2003/5/3,16:00:00,24.7,0 ,51.9,0 ,27.7,0 ,23.4,0 ,14.3,0 
2003/5/3,16:10:00,24.7,0 ,51.9,0 ,27.8,0 ,23.4,0 ,14.3,0 
2003/5/3,16:20:00,24.7,0 ,52,0 ,27.8,0 ,23.4,0 ,14.4,0 
2003/5/3,16:30:00,24.7,0 ,52,0 ,27.8,0 ,23.4,0 ,14.4,0 
2003/5/3,16:40:00,24.7,0 ,52,0 ,27.8,0 ,23.4,0 ,14.5,0 
2003/5/3,16:50:00,24.7,0 ,52,0 ,27.8,0 ,23.4,0 ,14.6,0 
2003/5/3,17:00:00,24.6,0 ,52.1,0 ,27.7,0 ,23.4,0 ,14.6,0 
2003/5/3,17:10:00,24.6,0 ,52.3,0 ,27.5,0 ,23.4,0 ,15.5,0 
2003/5/3,17:20:00,24.5,0 ,52.3,0 ,27.4,0 ,23.4,0 ,14.3,0 
2003/5/3,17:30:00,24.4,0 ,52.3,0 ,27.2,0 ,23.4,0 ,14.4,0 
2003/5/3,17:40:00,24.4,0 ,52.4,0 ,27,0 ,23.4,0 ,14.4,0 
2003/5/3,17:50:00,24.4,0 ,52.5,0 ,26.8,0 ,23.4,0 ,14.5,0 
2003/5/3,18:00:00,24.3,0 ,52.5,0 ,26.6,0 ,23.4,0 ,14.5,0 
2003/5/3,18:10:00,24.2,0 ,52.4,0 ,26.5,0 ,23.4,0 ,14.5,0 
2003/5/3,18:20:00,24.2,0 ,52.6,0 ,26.4,0 ,23.3,0 ,14.6,0 
2003/5/3,18:30:00,24.2,0 ,52.7,0 ,26.2,0 ,23.3,0 ,14.7,0 
2003/5/3,18:40:00,24.1,0 ,52.8,0 ,26.1,0 ,23.3,0 ,14.7,0 
2003/5/3,18:50:00,24.1,0 ,52.8,0 ,25.9,0 ,23.3,0 ,14.8,0 
2003/5/3,19:00:00,24.1,0 ,52.8,0 ,25.8,0 ,23.3,0 ,14.8,0 
2003/5/3,19:10:00,24,0 ,52.8,0 ,25.7,0 ,23.2,0 ,14.8,0 
2003/5/3,19:20:00,24,0 ,52.7,0 ,25.6,0 ,23.2,0 ,14.9,0 
2003/5/3,19:30:00,24,0 ,52.4,0 ,25.5,0 ,23.2,0 ,14.9,0 
2003/5/3,19:40:00,24,0 ,52.2,0 ,25.4,0 ,23.2,0 ,12.8,0 
2003/5/3,19:50:00,24,0 ,52.2,0 ,25.2,0 ,23.2,0 ,12.9,0 
2003/5/3,20:00:00,23.9,0 ,52.1,0 ,25.1,0 ,23.2,0 ,13,0 
2003/5/3,20:10:00,23.9,0 ,52,0 ,25,0 ,23.2,0 ,11.9,0 
2003/5/3,20:20:00,23.9,0 ,51.7,0 ,24.9,0 ,23.1,0 ,11.7,0 
2003/5/3,20:30:00,23.9,0 ,51.5,0 ,24.8,0 ,23.1,0 ,11.8,0 
2003/5/3,20:40:00,23.8,0 ,51.5,0 ,24.7,0 ,23.1,0 ,11.8,0 
2003/5/3,20:50:00,23.9,0 ,51.7,0 ,24.6,0 ,23.1,0 ,11.9,0 